Home   Weather   Calabasas   Past weeks
Flag for USA

Past Weather in Calabasas, California, USA — Yesterday and Last 2 Weeks

Now
65 °F

Passing clouds.


Feels Like: 65 °F
Forecast: 75 / 48 °F
Wind: 8 mph from Southeast

Location: Van Nuys Airport

Current Time: Feb 23, 2020 at 4:01:37 pm

Latest Report: Feb 23, 2020 at 2:51 pm


Visibility: 10 mi

Pressure: 30.20 "Hg

Humidity: 59%

Dew Point: 50 °F

Location of CalabasasLocation

Past Weather in Calabasas — Graph

°F

Calabasas Temperature Yesterday

Maximum temperature yesterday: 63 °F (at 11:51 am)
Minimum temperature yesterday: 53 °F (at 9:51 pm)
Average temperature yesterday: 57 °F

High & Low Weather Summary for the Past Weeks

 TemperatureHumidityPressure
High76 °F (Feb 20, 1:51 pm)90% (Feb 18, 10:29 pm)30.28 "Hg (Feb 18, 10:29 pm)
Low41 °F (Feb 12, 5:51 am)9% (Feb 11, 2:51 pm)29.75 "Hg (Feb 9, 2:51 pm)
Average58 °F57%30.00 "Hg
* Reported Feb 8 2:51 pm — Feb 23 2:51 pm, Calabasas. Weather by CustomWeather, © 2020

Note: Actual official high and low records may vary slightly from our data, if they occured in-between our weather recording intervals... More about our weather records

Calabasas Weather History for the Previous 24 Hours

Scroll right to see more
 ConditionsComfort  
Time TempWeatherWind HumidityBarometerVisibility
2:51 pm
Sun, Feb 23
65 °FPassing clouds.8 mph59%30.20 "Hg10 mi
1:51 pm64 °FScattered clouds.7 mph58%30.21 "Hg10 mi
12:51 pm64 °FSunny.5 mph54%30.22 "Hg10 mi
11:51 am62 °FScattered clouds.9 mph58%30.25 "Hg10 mi
10:58 am61 °FPassing clouds.No wind62%30.28 "Hg10 mi
9:51 am58 °FScattered clouds.3 mph72%30.27 "Hg10 mi
8:51 am55 °FSunny.No wind80%30.26 "Hg10 mi
7:51 am51 °FSunny.No wind86%30.24 "Hg10 mi
6:51 am48 °FSunny.No wind86%30.22 "Hg9 mi
5:51 am49 °FClear.3 mph86%30.20 "Hg10 mi
4:51 am49 °FClear.No wind86%30.17 "Hg10 mi
3:51 am50 °FClear.No wind89%30.15 "Hg10 mi
2:51 am52 °FClear.3 mph86%30.14 "Hg10 mi
1:51 am53 °FPassing clouds.No wind83%30.14 "Hg10 mi
1:30 am54 °FMostly cloudy.No wind80%30.15 "Hg10 mi
1:09 am54 °FMostly cloudy.No wind80%30.15 "Hg10 mi
12:51 am54 °FOvercast.No wind80%30.14 "Hg10 mi
11:51 pm
Sat, Feb 22
54 °FOvercast.No wind77%30.12 "Hg10 mi
11:22 pm54 °FOvercast.No wind80%30.14 "Hg10 mi
10:51 pm54 °FMostly cloudy.No wind80%30.12 "Hg10 mi
9:51 pm53 °FPassing clouds.No wind83%30.11 "Hg10 mi
8:51 pm54 °FPassing clouds.No wind74%30.10 "Hg10 mi
7:51 pm54 °FPassing clouds.No wind77%30.07 "Hg10 mi
7:19 pm55 °FPassing clouds.No wind72%30.07 "Hg10 mi
6:51 pm56 °FPartly cloudy.No wind77%30.06 "Hg10 mi
5:51 pm56 °FLight rain. Mostly cloudy.5 mph75%30.04 "Hg10 mi
4:51 pm57 °FBroken clouds.3 mph72%30.02 "Hg10 mi
Weather by CustomWeather, © 2020

See weather overview

Advertising